This demonstration page uses our WeatherBlox Daily Observations layout. Learn more.

39.92423, -83.80882

Hourly Observations for December 19, 2018

Temp ( °F °C ) Dew Point ( °F °C ) Humidity (%) Winds ( mph kmh ) Pressure ( in mb ) Visibility ( mi km ) Precip ( " mm )
12:56 am 00:56 Clear 29 -1.7 26 -3.3 89 89 SE 6 9 30.11 1020 10 16.0934 0 0
1:56 am 01:56 Clear 30 -1.1 27 -2.8 88 88 SSE 6 9 30.1 1019 10 16.0934 0 0
2:56 am 02:56 Clear 29 -1.7 26 -3.3 89 89 SSE 6 9 30.11 1020 10 16.0934 0 0
3:56 am 03:56 Clear 27 -2.8 24 -4.4 89 89 SSE 6 9 30.1 1019 10 16.0934 0 0
4:56 am 04:56 Clear 26 -3.3 25 -3.9 96 96 SE 5 7 30.09 1019 10 16.0934 0 0
5:56 am 05:56 Clear 26 -3.3 24 -4.4 92 92 ESE 5 7 30.08 1019 10 16.0934 0 0
6:56 am 06:56 Clear 27 -2.8 26 -3.3 96 96 Calm 30.09 1019 10 16.0934 0 0
7:56 am 07:56 Sunny 26 -3.3 25 -3.9 96 96 SE 3 6 30.09 1019 9 14.48406 0 0
8:56 am 08:56 Sunny 28 -2.2 27 -2.8 96 96 SE 7 11 30.08 1019 10 16.0934 0 0
9:56 am 09:56 Sunny 33 0.6 29 -1.7 85 85 SSE 8 13 30.08 1019 10 16.0934 0 0
10:56 am 10:56 Sunny 39 3.9 31 -0.6 73 73 S 6 9 30.07 1018 10 16.0934 0 0
11:56 am 11:56 Sunny 43 6.1 33 0.6 68 68 S 6 9 30.02 1017 10 16.0934 0 0
12:56 pm 12:56 Sunny 46 7.8 34 1.1 63 63 S 6 9 29.98 1015 10 16.0934 0 0
1:56 pm 13:56 Sunny 47 8.3 35 1.7 63 63 SSW 6 9 29.97 1015 10 16.0934 0 0
2:56 pm 14:56 Sunny 50 10 33 0.6 52 52 S 7 11 29.95 1014 10 16.0934 0 0
3:56 pm 15:56 Sunny 50 10 32 0 50 50 S 8 13 29.94 1014 10 16.0934 0 0
4:56 pm 16:56 Sunny 44 6.7 34 1.1 68 68 SSE 7 11 29.96 1015 10 16.0934 0 0
5:56 pm 17:56 Clear 41 5 34 1.1 76 76 SSE 8 13 29.96 1015 10 16.0934 0 0
6:56 pm 18:56 Clear 41 5 33 0.6 73 73 SSE 7 11 29.95 1014 10 16.0934 0 0
7:56 pm 19:56 Clear 39 3.9 32 0 76 76 SSE 6 9 29.95 1014 10 16.0934 0 0
8:56 pm 20:56 Clear 41 5 32 0 70 70 SSE 7 11 29.93 1014 10 16.0934 0 0
9:56 pm 21:56 Clear 40 4.4 32 0 73 73 SSE 8 13 29.91 1013 10 16.0934 0 0
10:56 pm 22:56 Clear 41 5 32 0 70 70 SSE 8 13 29.91 1013 10 16.0934 0 0
11:56 pm 23:56 Clear 41 5 33 0.6 73 73 S 8 13 29.9 1013 10 16.0934 0 0

Powered by AerisWeather